Weather in Neftcala

Azerbaijan     39°23′10″N   49°14′49″E
temp.,
°C
wind,
m/s
gust,
m/s
humid.,
%
clouds,
%
prec.,
mm/h
press.,
hPa
HPBL,
m
7 march, sun
sun701:00+9ssw6117590 0.0 1014187
04:00+8ssw457659 0.0 101169
07:00+8wsw347118 0.0 101329
10:00+12n684548 0.0 1016462
13:00+10nne151655100 0.0 1019682
16:00+8ne17205950 0.0 1020646
19:00+6ne1418640 0.0 1023694
22:00+5ene811620 0.0 1024795
8 march, mon
mon801:00+5e796523 0.0 1024469
04:00+5ene687035 0.0 1023316
07:00+6e467284 0.0 1022353
10:00+7e567192 0.0 1022770
13:00+8ese6669100 0.0 1019749
16:00+9se666985 0.0 1016758
19:00+8se577854 0.0 1014496
22:00+8ese237866 0.0 1014257
9 march, tue
tue901:00+8s0183100 0.1 101489
04:00+7nw6877100 0.3 1014486
07:00+5nw358674 0.0 1015214
10:00+6ne227772 0.0 1017517
13:00+7ene4367100 0.0 1017622
16:00+8ene656577 0.0 1016659
19:00+7e567211 0.0 1018524
22:00+7e446651 0.0 1021819
10 march, wed
wed1001:00+7ese3367100 0.0 1021642
04:00+6se347482 0.0 1020171
07:00+6sse457915 0.0 1021184
10:00+9s567119 0.0 1022821
13:00+11sse666596 0.0 1021944
16:00+10sse766869 0.0 1019722
19:00+9sse67774 0.0 1018517
22:00+9se578052 0.0 1018426
11 march, thu
thu1101:00+9ese6783100 0.0 1016554
04:00+8ese6883100 0.1 1014595
07:00+8e7880100 0.2 1013629
10:00+8ene81072100 0.2 1012778
13:00+7ne121378100 0.0 1012745
16:00+6ne141786100 0.1 1011954
19:00+5nne182286100 1.4 10141346
22:00+3nne202580100 2.9 10181322